Regional Weather Roundup
Issued by NWS Albany, NY

Home | Current Version | Previous Version | Text Only | Print | Product List | Glossary On
Versions: 1 2 3 4 5 6 7 8 9 10 11 12 13 14 15 16 17 18 19 20 21 22 23 24 25 26 27 28 29 30 31 32 33 34 35 36 37 38 39 40 41 42 43 44 45 46 47 48 49 50
310
ASUS41 KALY 250410
RWRALY

NEW YORK STATE HOURLY WEATHER ROUNDUP
NATIONAL WEATHER SERVICE ALBANY NY
1200 AM EDT TUE JUL 25 2017

NOTE: "FAIR" INDICATES FEW OR NO CLOUDS BELOW 12,000 FEET WITH NO
SIGNIFICANT WEATHER AND/OR NO OBSTRUCTIONS TO VISIBILITY.

NYZ032-033-038>043-046>054-057>066-NYZ062>081-082-084-250500-
EAST


CITY           SKY/WX    TMP DP  RH WIND       PRES   REMARKS
ALBANY         CLOUDY    60  56  86 S5        29.97R
GLENS FALLS    CLOUDY    59  52  77 NE6       29.97R
POUGHKEEPSIE   CLOUDY    61  54  77 SE3       29.96R
NEWBURGH       CLOUDY    61  57  88 E12       29.97R
MONTGOMERY     CLOUDY    61  57  87 NE6       29.96R
WHITE PLAINS   PTCLDY    61  55  81 CALM      29.98R
ISLIP          CLOUDY    63  58  83 NE9       29.96R
NEW YORK CITY  CLOUDY    65  59  81 E10       29.96R
CENTRAL PARK   CLOUDY    65  58  78 E6        29.99R
$$

NYZ005>009-017-018-044>046-055-056-250500-
CENTRAL


CITY           SKY/WX    TMP DP  RH WIND       PRES   REMARKS
FULTON         CLOUDY    63  60  90 CALM      29.90R
SYRACUSE       CLOUDY    60  60 100 CALM      29.90R
ROME           MOCLDY    61  58  90 SE9       29.92R
ELMIRA         MOCLDY    64  60  87 W6        29.93R
BINGHAMTON     NOT AVBL
$$

NYZ026>034-041>043-087-250500-
NORTH


CITY           SKY/WX    TMP DP  RH WIND       PRES   REMARKS
WATERTOWN      LGT RAIN  62  62 100 SW6       29.89R FOG
FORT DRUM      NOT AVBL
OGDENSBURG     LGT RAIN  58  57  96 NE10G20   29.91S
MASSENA        LGT RAIN  58  56  93 NE20      29.94R
SARANAC LAKE   CLOUDY    54  54 100 NE3       29.93R
PLATTSBURGH    CLOUDY    58  55  90 CALM      29.97R
$$

NYZ001>004-010>016-019>021-085-250500-
WEST


CITY           SKY/WX    TMP DP  RH WIND       PRES   REMARKS
NIAGARA FALLS  CLOUDY    64  58  80 N8        29.97R
BUFFALO        CLOUDY    63  59  87 NW6       29.97R
DUNKIRK        CLOUDY    63  60  90 N13       30.00R
JAMESTOWN      CLOUDY    59  55  88 NW7       30.01R
WELLSVILLE     LGT RAIN  61  58  90 W13       30.00R FOG
ROCHESTER      CLOUDY    64  62  93 W7        29.94R
PENN YAN       CLOUDY    65  61  87 SW5       29.94R
$$

             KEY
       WCI = WIND CHILL INDEX
       VSB = VISIBILITY
       HX  = HEAT INDEX
$$




USA.gov is the U.S. government's official web portal to all federal, state and local government web resources and services.